Idabel, OK

7:02 AM CDT on July 22, 2017 (GMT -0500)
Idabel

Weather History for K4O4 - May, 2013

Change the Weather History Date:

Friday, May 3, 2013

  Actual Average (KPRX) Record (KPRX)
Temperature  
Mean Temperature 48 °F -  
Max Temperature 62 °F 76 °F 87 °F (2012)
Min Temperature 35 °F 57 °F 37 °F (2013)
Degree Days  
Heating Degree Days 16    
Moisture  
Dew Point 31 °F    
Average Humidity 59    
Maximum Humidity 93    
Minimum Humidity 27    
Precipitation  
Precipitation 0.02 in - - ()
Sea Level Pressure  
Sea Level Pressure 30.11 in    
Wind  
Wind Speed 13 mph (NW)    
Max Wind Speed 24 mph    
Max Gust Speed 37 mph    
Visibility 10 miles    
Events      
Averages and records for this station are not official NWS values.
T = Trace of Precipitation, MM = Missing Value Source: NWS Daily Summary

Daily Weather History Graph

Daily Weather History Graph

Search for Another Location

Airport or City:

Trip Planner

Search our weather history database for the weather conditions in past years. The results will help you decide how hot, cold, wet, or windy it might be!

Date:

Astronomy

May. 03, 2013 Rise Set
Actual Time 6:28 AM CDT 8:04 PM CDT
Civil Twilight 6:01 AM CDT 8:31 PM CDT
Nautical Twilight 5:29 AM CDT 9:03 PM CDT
Astronomical Twilight 4:55 AM CDT 9:38 PM CDT
Moon 2:35 AM CDT (5/3) 2:16 PM CDT (5/3)
Length of Visible Light 14h 30m
Length of Day
13h 36m
Last Quarter, 37% of the Moon is Illuminated
May 3
Last Quarter
May 9
New
May 17
First Quarter
May 24
Full
May 31
Last Quarter

Hourly Weather History & Observations

Time (CDT) Temp. Windchill Dew Point Humidity Pressure Visibility Wind Dir Wind Speed Gust Speed Precip Events Conditions
12:15 AM 41.0 °F 32.5 °F 35.6 °F 81% 30.20 in 10.0 mi NNW 17.3 mph 25.3 mph N/A   Overcast
12:35 AM 41.0 °F 33.5 °F 35.6 °F 81% 30.19 in 10.0 mi NNW 13.8 mph - N/A   Overcast
12:55 AM 41.0 °F 33.9 °F 35.6 °F 81% 30.20 in 7.0 mi NW 12.7 mph 17.3 mph N/A   Overcast
1:15 AM 39.2 °F 30.5 °F 35.6 °F 87% 30.19 in 10.0 mi NNW 16.1 mph 21.9 mph N/A   Mostly Cloudy
1:35 AM 37.4 °F 29.8 °F 35.6 °F 93% 30.18 in 10.0 mi NNW 11.5 mph 18.4 mph N/A   Mostly Cloudy
1:55 AM 37.4 °F 29.3 °F 35.6 °F 93% 30.18 in 10.0 mi NW 12.7 mph 18.4 mph N/A   Mostly Cloudy
2:15 AM 37.4 °F 29.8 °F 33.8 °F 87% 30.18 in 10.0 mi NNW 11.5 mph 18.4 mph N/A   Mostly Cloudy
2:35 AM 37.4 °F 28.9 °F 33.8 °F 87% 30.17 in 10.0 mi NNW 13.8 mph - N/A   Overcast
2:55 AM 37.4 °F 30.8 °F 33.8 °F 87% 30.17 in 10.0 mi NNW 9.2 mph - N/A   Mostly Cloudy
3:15 AM 37.4 °F 30.3 °F 35.6 °F 93% 30.17 in 10.0 mi NW 10.4 mph - 0.01 in   Mostly Cloudy
3:35 AM 37.4 °F 29.3 °F 33.8 °F 87% 30.16 in 10.0 mi NNW 12.7 mph - 0.02 in   Mostly Cloudy
3:55 AM 37.4 °F 30.8 °F 33.8 °F 87% 30.17 in 10.0 mi NW 9.2 mph 17.3 mph 0.02 in   Mostly Cloudy
4:15 AM 37.4 °F 28.9 °F 33.8 °F 87% 30.17 in 10.0 mi NW 13.8 mph 20.7 mph N/A   Mostly Cloudy
4:35 AM 37.4 °F 29.8 °F 33.8 °F 87% 30.16 in 10.0 mi NW 11.5 mph - N/A   Scattered Clouds
4:55 AM 37.4 °F 29.8 °F 33.8 °F 87% 30.16 in 10.0 mi NW 11.5 mph 18.4 mph N/A   Scattered Clouds
5:15 AM 37.4 °F 29.3 °F 33.8 °F 87% 30.15 in 10.0 mi NW 12.7 mph - N/A   Clear
5:35 AM 37.4 °F 30.3 °F 33.8 °F 87% 30.15 in 10.0 mi NW 10.4 mph 17.3 mph N/A   Scattered Clouds
5:55 AM 37.4 °F 29.8 °F 33.8 °F 87% 30.16 in 10.0 mi NNW 11.5 mph - N/A   Clear
6:15 AM 35.6 °F 28.6 °F 33.8 °F 93% 30.16 in 10.0 mi NW 9.2 mph - N/A   Clear
6:35 AM 35.6 °F 26.2 °F 33.8 °F 93% 30.17 in 10.0 mi NNW 15.0 mph - N/A   Scattered Clouds
6:55 AM 37.4 °F 28.2 °F 35.6 °F 93% 30.17 in 10.0 mi NNW 16.1 mph 21.9 mph N/A   Overcast
7:15 AM 39.2 °F 30.2 °F 35.6 °F 87% 30.17 in 10.0 mi NNW 17.3 mph 21.9 mph N/A   Overcast
7:35 AM 39.2 °F 31.6 °F 33.8 °F 81% 30.18 in 10.0 mi NNW 12.7 mph 26.5 mph N/A   Overcast
7:55 AM 41.0 °F 32.8 °F 33.8 °F 76% 30.17 in 10.0 mi North 16.1 mph 25.3 mph N/A   Overcast
8:15 AM 41.0 °F 34.7 °F 33.8 °F 76% 30.18 in 10.0 mi NW 10.4 mph 18.4 mph N/A   Overcast
8:35 AM 41.0 °F 34.3 °F 33.8 °F 76% 30.18 in 10.0 mi NW 11.5 mph 21.9 mph N/A   Overcast
8:55 AM 42.8 °F 35.8 °F 35.6 °F 76% 30.18 in 10.0 mi NNW 13.8 mph 18.4 mph N/A   Mostly Cloudy
9:15 AM 44.6 °F 37.4 °F 35.6 °F 71% 30.18 in 10.0 mi NW 16.1 mph 21.9 mph N/A   Mostly Cloudy
9:35 AM 44.6 °F 37.2 °F 35.6 °F 71% 30.17 in 10.0 mi NW 17.3 mph 23.0 mph N/A   Mostly Cloudy
9:55 AM 46.4 °F 40.4 °F 33.8 °F 62% 30.17 in 10.0 mi NNW 13.8 mph 26.5 mph N/A   Scattered Clouds
10:15 AM 48.2 °F - 33.8 °F 58% 30.17 in 10.0 mi NNW 15.0 mph 26.5 mph N/A   Clear
10:35 AM 50.0 °F - 32.0 °F 50% 30.17 in 10.0 mi NW 18.4 mph 28.8 mph N/A   Scattered Clouds
11:15 AM 51.8 °F - 33.8 °F 50% 30.16 in 10.0 mi NNW 18.4 mph 26.5 mph N/A   Clear
11:35 AM 51.8 °F - 32.0 °F 47% 30.16 in 10.0 mi NW 18.4 mph 26.5 mph N/A   Clear
11:55 AM 53.6 °F - 32.0 °F 44% 30.15 in 10.0 mi NNW 17.3 mph 27.6 mph N/A   Clear
12:15 PM 53.6 °F - 32.0 °F 44% 30.14 in 10.0 mi WNW 13.8 mph 24.2 mph N/A   Clear
12:35 PM 55.4 °F - 30.2 °F 38% 30.13 in 10.0 mi NNW 15.0 mph 24.2 mph N/A   Clear
12:55 PM 55.4 °F - 28.4 °F 36% 30.12 in 10.0 mi NNW 18.4 mph 26.5 mph N/A   Clear
1:15 PM 57.2 °F - 26.6 °F 31% 30.11 in 10.0 mi NW 24.2 mph 29.9 mph N/A   Clear
1:35 PM 57.2 °F - 26.6 °F 31% 30.10 in 10.0 mi NNW 18.4 mph 32.2 mph N/A   Clear
1:55 PM 59.0 °F - 26.6 °F 29% 30.09 in 10.0 mi NNW 20.7 mph 29.9 mph N/A   Clear
2:15 PM 59.0 °F - 24.8 °F 27% 30.08 in 10.0 mi NW 23.0 mph 31.1 mph N/A   Clear
2:35 PM 60.8 °F - 26.6 °F 27% 30.08 in 10.0 mi NW 24.2 mph 36.8 mph N/A   Clear
2:55 PM 60.8 °F - 28.4 °F 29% 30.07 in 10.0 mi NNW 18.4 mph 29.9 mph N/A   Clear
3:15 PM 60.8 °F - 28.4 °F 29% 30.06 in 10.0 mi NNW 16.1 mph 28.8 mph N/A   Clear
3:35 PM 60.8 °F - 28.4 °F 29% 30.05 in 10.0 mi NW 13.8 mph 31.1 mph N/A   Clear
3:55 PM 60.8 °F - 30.2 °F 31% 30.04 in 10.0 mi NW 19.6 mph 27.6 mph N/A   Clear
4:15 PM 62.6 °F - 28.4 °F 27% 30.04 in 10.0 mi NW 18.4 mph 27.6 mph N/A   Clear
4:35 PM 60.8 °F - 28.4 °F 29% 30.03 in 10.0 mi NNW 17.3 mph 27.6 mph N/A   Clear
4:55 PM 60.8 °F - 28.4 °F 29% 30.03 in 10.0 mi NW 17.3 mph 23.0 mph N/A   Clear
5:15 PM 60.8 °F - 26.6 °F 27% 30.03 in 10.0 mi NW 16.1 mph 24.2 mph N/A   Clear
5:35 PM 60.8 °F - 28.4 °F 29% 30.02 in 10.0 mi North 17.3 mph 27.6 mph N/A   Clear
5:55 PM 59.0 °F - 26.6 °F 29% 30.02 in 10.0 mi NW 15.0 mph 19.6 mph N/A   Clear
6:15 PM 59.0 °F - 28.4 °F 31% 30.02 in 10.0 mi NW 9.2 mph 19.6 mph N/A   Clear
6:35 PM 59.0 °F - 26.6 °F 29% 30.03 in 10.0 mi NW 13.8 mph 21.9 mph N/A   Clear
6:55 PM 59.0 °F - 26.6 °F 29% 30.03 in 10.0 mi NW 16.1 mph - N/A   Clear
7:15 PM 59.0 °F - 26.6 °F 29% 30.02 in 10.0 mi NW 9.2 mph - N/A   Clear
7:35 PM 59.0 °F - 26.6 °F 29% 30.03 in 10.0 mi NW 10.4 mph - N/A   Clear
7:55 PM 55.4 °F - 26.6 °F 33% 30.03 in 10.0 mi WNW 8.1 mph - N/A   Clear
8:15 PM 53.6 °F - 26.6 °F 35% 30.03 in 10.0 mi NW 8.1 mph - N/A   Clear
8:35 PM 51.8 °F - 26.6 °F 38% 30.03 in 10.0 mi WNW 3.5 mph - N/A   Clear
8:55 PM 50.0 °F - 28.4 °F 43% 30.03 in 10.0 mi WSW 3.5 mph - N/A   Clear
9:15 PM 46.4 °F - 30.2 °F 53% 30.02 in 10.0 mi Calm Calm - N/A   Clear
9:35 PM 46.4 °F - 30.2 °F 53% 30.02 in 10.0 mi Calm Calm - N/A   Clear
9:55 PM 44.6 °F - 30.2 °F 57% 30.02 in 10.0 mi Calm Calm - N/A   Clear
10:15 PM 44.6 °F - 28.4 °F 53% 30.01 in 10.0 mi Calm Calm - N/A   Clear
10:35 PM 44.6 °F - 32.0 °F 61% 30.01 in 10.0 mi Calm Calm - N/A   Clear
10:55 PM 42.8 °F 41.1 °F 32.0 °F 66% 30.01 in 10.0 mi SSW 3.5 mph - N/A   Clear
11:15 PM 41.0 °F - 32.0 °F 70% 30.00 in 10.0 mi Calm Calm - N/A   Clear
11:35 PM 41.0 °F 39.0 °F 33.8 °F 76% 30.00 in 10.0 mi SW 3.5 mph - N/A   Clear
11:55 PM 39.2 °F 37.0 °F 33.8 °F 81% 30.00 in 10.0 mi SW 3.5 mph - N/A   Clear